Regional Weather Roundup
Issued by NWS Northern Indiana

Home | Current Version | Previous Version | Graphics & Text | Print | Product List | Glossary On
Versions: 1 2 3 4 5 6 7 8 9 10 11 12 13 14 15 16 17 18 19 20 21 22 23 24 25 26 27 28 29 30 31 32 33 34 35 36 37 38 39 40 41 42 43 44 45 46 47 48 49 50
000
ASUS43 KIWX 121510
RWRIWX

KIWX WEATHER ROUNDUP
NATIONAL WEATHER SERVICE NORTHERN INDIANA
1100 AM EDT SAT JUL 12 2014

NOTE: "FAIR" INDICATES FEW OR NO CLOUDS BELOW 12,000 FEET WITH NO
SIGNIFICANT WEATHER AND/OR OBSTRUCTIONS TO VISIBILITY.

* THESE STATIONS ARE NOT UNDER NWS QUALITY CONTROL. THEY ALSO MAY NOT
  REPORT WEATHER SUCH AS PRECIPITATION OR FOG.

INZ001>027-121600-
NORTHERN INDIANA

CITY           SKY/WX    TMP DP  RH WIND       PRES   REMARKS
GARY*          LGT RAIN  72  68  88 SE5       30.06S
VALPARAISO     LGT RAIN  69  67  93 S6        30.07F FOG
MICHIGAN CITY* CLOUDY    72  64  78 S8        30.06F
LAPORTE*       DRIZZLE   70  67  89 S7        30.08F
KNOX*          CLOUDY    71  66  84 S13       30.06F
SOUTH BEND     CLOUDY    78  65  63 S12       30.08F
ELKHART*       PTSUNNY   79  64  61 S8        30.09F
GOSHEN         PTSUNNY   79  65  62 S13       30.09F
MONTICELLO*    LGT RAIN  70  67  90 S6        30.09F
LOGANSPORT*    CLOUDY    73  63  68 S10       30.12F
ROCHESTER*     PTSUNNY   79  64  61 S9        30.10F
WARSAW*        MOSUNNY   79  64  61 S7        30.10F
ANGOLA*        MOSUNNY   79  64  61 SW8       30.12F
FORT WAYNE     CLOUDY    80  62  54 SW10      30.14F
HUNTINGTON*    MOSUNNY   79  64  59 S9        30.13F
MARION*        PTSUNNY   78  63  60 S9        30.14F

$$
INZ028>050-121600-
CENTRAL INDIANA

CITY           SKY/WX    TMP DP  RH WIND       PRES   REMARKS
LAFAYETTE      LGT RAIN  71  67  87 S9        30.11F
KOKOMO*        PTSUNNY   79  66  65 SW15      30.13S
MUNCIE*        MOSUNNY   78  61  55 S12G18    30.15F
INDIANAPOLIS   CLOUDY    76  64  66 SW12      30.15S

$$
MIZ043>046-050>051-056>058-064>065-071>073-077>080-121600-
SOUTHWEST LOWER MICHIGAN

CITY           SKY/WX    TMP DP  RH WIND       PRES   REMARKS
BATTLE CREEK   CLOUDY    77  63  61 S10       30.12F
BENTON HARBOR  CLOUDY    74  64  71 S9        30.05F
COLDWATER*     CLOUDY    78  64  62 S5        30.12F
HILLSDALE*     SUNNY     78  64  61 CALM      30.14F
HOLLAND        CLOUDY    74  65  73 S3        30.08F
GRAND RAPIDS   PTSUNNY   81  64  56 S9        30.09F
KALAMAZOO      PTSUNNY   77  63  61 S9        30.10F
STURGIS*       PTSUNNY   77  66  69 S8        30.11F
THREE RIVERS*  PTSUNNY   77  67  70 S8        30.10F

$$
OHZ001>008-015>018-024>025-121600-
NORTHWEST OHIO

CITY           SKY/WX    TMP DP  RH WIND       PRES   REMARKS
WAUSEON*       FAIR      81  63  54 SW8       30.14S
DEFIANCE       MOSUNNY   81  61  50 SW8       30.14S
FINDLAY        MOSUNNY   81  63  54 S8        30.15S
TOLEDO EXPRESS SUNNY     81  61  50 VRB7      30.14S
TOLEDO METCALF SUNNY     82  59  45 SW10      30.14F
LIMA           MOSUNNY   79  62  56 S9        30.16F

$$
&&



USA.gov is the U.S. government's official web portal to all federal, state and local government web resources and services.